• Join FlightAware (Why Join?)
  • Login
  • US Flag 
01:28PM EST


 

Airport Tracker/Info


-or-


 

Live Flight TrackerFlight Track Log ✈ FFT532 ✈ 19-Sep-2013 ✈ KDEN - KMDW

Flight Track Log - Related Links

Times and Time Zones

All times are in EDT time to prevent confusion due to time zone crossing. See the FFT532 flight status page for this flight to view local times or setup timezone preferences in your user account.

Time Position Orientation Groundspeed Altitude Reporting Facility
EDT Latitude Longitude Course Direction KTS MPH feet Rate Location/Type
10:57AM 39.8770 -104.6200 90° East 178 205 5,500  Level FlightAware
10:58AM 39.8760 -104.5990 94° East 182 209 6,200 1,860 Climbing FlightAware
10:58AM 39.8760 -104.5730 90° East 193 222 6,900 1,620 Climbing FlightAware
10:58AM 39.8760 -104.5530 90° East 211 243 7,300 1,620 Climbing FlightAware
10:59AM 39.8760 -104.5150 90° East 239 275 8,100 1,620 Climbing FlightAware
10:59AM 39.8760 -104.4840 90° East 267 307 8,600 1,560 Climbing FlightAware
10:59AM 39.8750 -104.4610 93° East 278 320 9,000 1,620 Climbing FlightAware
11:00AM 39.8750 -104.4170 90° East 288 331 9,700 1,560 Climbing FlightAware
11:00AM 39.8740 -104.3560 91° East 304 350 10,600 1,380 Climbing FlightAware
11:01AM 39.8750 -104.2920 89° East 342 394 11,300 1,680 Climbing FlightAware
11:01AM 39.8760 -104.2130 89° East 364 419 12,600 2,220 Climbing FlightAware
11:02AM 39.8780 -104.1270 88° East 379 436 14,100 2,460 Climbing FlightAware
11:03AM 39.8790 -104.0490 89° East 385 443 15,600 2,340 Climbing FlightAware
11:03AM 39.8800 -103.9700 89° East 395 455 16,800 2,220 Climbing FlightAware
11:04AM 39.8820 -103.8840 88° East 403 464 18,200 2,160 Climbing FlightAware
11:04AM 39.8830 -103.7970 89° East 412 474 19,500 1,980 Climbing FlightAware
11:05AM 39.8860 -103.7150 87° East 424 488 20,500 2,040 Climbing FlightAware
11:06AM 39.8960 -103.6240 82° East 428 493 21,800 1,920 Climbing FlightAware
11:06AM 39.9070 -103.5330 81° East 437 503 22,800 1,680 Climbing FlightAware
11:07AM 39.9170 -103.4410 82° East 447 514 23,800 1,500 Climbing FlightAware
11:07AM 39.9280 -103.3490 81° East 459 528 24,500 1,020 Climbing FlightAware
11:08AM 39.9380 -103.2560 82° East 475 547 25,000 960 Climbing FlightAware
11:08AM 39.9510 -103.1430 81° East 490 564 25,700 1,140 Climbing FlightAware
11:09AM 39.9590 -103.0430 84° East 498 573 26,400 1,380 Climbing FlightAware
11:10AM 39.9640 -102.9400 86° East 499 574 27,300 1,740 Climbing FlightAware
11:10AM 39.9690 -102.8520 86° East 496 571 28,300 1,860 Climbing FlightAware
11:11AM 39.9760 -102.7460 85° East 491 565 29,400 1,320 Climbing FlightAware
11:11AM 39.9840 -102.6240 85° East 500 575 30,100 960 Climbing FlightAware
11:12AM 39.9910 -102.4940 86° East 510 587 30,800 1,020 Climbing FlightAware
11:13AM 39.9970 -102.4040 85° East 514 592 31,300 1,080 Climbing FlightAware
11:13AM 40.0040 -102.2810 86° East 514 592 32,100 1,500 Climbing FlightAware
11:14AM 40.0110 -102.1700 85° East 505 581 33,200 1,980 Climbing FlightAware
11:14AM 40.0170 -102.0720 85° East 491 565 34,400 1,680 Climbing FlightAware
11:15AM 40.0220 -101.9710 86° East 487 560 35,100 1,140 Climbing FlightAware
11:16AM 40.0280 -101.8610 86° East 486 559 35,800 720 Climbing FlightAware
11:16AM 40.0330 -101.7670 86° East 486 559 36,000 120 Climbing FlightAware
11:17AM 40.0380 -101.6770 86° East 486 559 36,000  Level FlightAware
11:17AM 40.0430 -101.5850 86° East 486 559 36,000  Level FlightAware
11:18AM 40.0480 -101.4950 86° East 486 559 36,000  Level FlightAware
11:19AM 40.0520 -101.4060 87° East 486 559 36,000  Level FlightAware
11:19AM 40.0570 -101.3160 86° East 486 559 36,000  Level FlightAware
11:20AM 40.0620 -101.2260 86° East 486 559 36,000  Level FlightAware
11:20AM 40.0660 -101.1420 86° East 486 559 36,000  Level FlightAware
11:21AM 40.0710 -101.0520 86° East 486 559 36,000  Level FlightAware
11:22AM 40.0760 -100.9620 86° East 486 559 36,000  Level FlightAware
11:22AM 40.0810 -100.8750 86° East 486 559 36,000  Level FlightAware
11:23AM 40.0850 -100.7850 87° East 486 559 36,000  Level FlightAware
11:23AM 40.0900 -100.7010 86° East 486 559 36,000  Level FlightAware
11:24AM 40.0950 -100.6090 86° East 486 559 36,000  Level FlightAware
11:25AM 40.1000 -100.5160 86° East 486 559 36,000  Level FlightAware
11:25AM 40.1050 -100.4270 86° East 486 559 36,000 420 Level FlightAware
11:27AM 40.1161 -99.9578 86° East 477 549 36,900 360 Climbing Denver Center
11:28AM 40.1231 -99.7667 87° East 476 548 37,000  Climbing Denver Center
11:29AM 40.1303 -99.5911 87° East 483 556 37,000  Level Denver Center
11:30AM 40.1361 -99.4178 87° East 480 552 37,000  Level Denver Center
11:36AM 40.1670 -98.3600 87° East 482 555 37,000  Level FlightAware
11:36AM 40.1700 -98.2310 88° East 483 556 37,000  Level FlightAware
11:37AM 40.1730 -98.1470 87° East 483 556 37,000  Level FlightAware
11:37AM 40.1750 -98.0140 89° East 482 555 37,000  Level FlightAware
11:38AM 40.1770 -97.9160 88° East 482 555 37,000  Level FlightAware
11:39AM 40.1800 -97.8070 88° East 483 556 37,000  Level FlightAware
11:39AM 40.1820 -97.7110 88° East 485 558 37,000  Level FlightAware
11:40AM 40.1830 -97.6180 89° East 487 560 37,000  Level FlightAware
11:41AM 40.1860 -97.4750 88° East 488 562 37,000  Level FlightAware
11:41AM 40.1880 -97.3270 89° East 485 558 37,000  Level FlightAware
11:42AM 40.1900 -97.2170 89° East 483 556 37,000  Level FlightAware
11:43AM 40.1920 -97.1080 89° East 479 551 37,000  Level FlightAware
11:43AM 40.2000 -97.0170 83° East 477 549 37,000  Level FlightAware
11:44AM 40.2150 -96.9250 78° East 477 549 37,000 -120 Level FlightAware
11:44AM 40.2330 -96.8140 78° East 476 548 36,900 -120 Descending FlightAware
11:45AM 40.2480 -96.7230 78° East 479 551 36,900 60 Level FlightAware
11:46AM 40.2640 -96.6210 78° East 480 552 37,000 60 Climbing FlightAware
11:46AM 40.2800 -96.5210 78° East 482 555 37,000  Level FlightAware
11:47AM 40.2960 -96.4170 79° East 481 554 37,000  Level FlightAware
11:47AM 40.3110 -96.3220 78° East 481 554 37,000  Level FlightAware
11:48AM 40.3250 -96.2350 78° East 479 551 37,000  Level FlightAware
11:48AM 40.3430 -96.1170 79° East 475 547 37,000  Level FlightAware
11:49AM 40.3590 -96.0160 78° East 472 543 37,000  Level FlightAware
11:50AM 40.3730 -95.9260 78° East 470 541 37,000  Level FlightAware
11:50AM 40.3880 -95.8290 78° East 466 536 37,000 -120 Level FlightAware
11:51AM 40.4030 -95.7270 79° East 464 534 36,900 -120 Descending FlightAware
11:51AM 40.4180 -95.6270 79° East 463 533 36,900  Level FlightAware
11:52AM 40.4330 -95.5300 78° East 462 532 36,900  Level FlightAware
11:53AM 40.4460 -95.4430 79° East 464 534 36,900 60 Level FlightAware
11:53AM 40.4610 -95.3420 79° East 466 536 37,000 60 Climbing FlightAware
11:54AM 40.4760 -95.2380 79° East 466 536 37,000  Level FlightAware
11:54AM 40.4880 -95.1530 79° East 465 535 37,000  Level FlightAware
11:55AM 40.5010 -95.0640 79° East 467 537 37,000  Level FlightAware
11:56AM 40.5210 -94.9300 79° East 470 541 37,000  Level FlightAware
11:56AM 40.5350 -94.8350 79° East 471 542 37,000  Level FlightAware
11:57AM 40.5480 -94.7370 80° East 472 543 37,000  Level FlightAware
11:57AM 40.5620 -94.6380 79° East 474 545 37,000  Level FlightAware
11:58AM 40.5770 -94.5360 79° East 475 547 37,000  Level FlightAware
11:59AM 40.5900 -94.4430 80° East 474 545 37,000  Level FlightAware
11:59AM 40.6040 -94.3430 80° East 476 548 37,000  Level FlightAware
12:00PM 40.6190 -94.2320 80° East 476 548 37,000  Level FlightAware
12:00PM 40.6310 -94.1450 80° East 476 548 37,000  Level FlightAware
12:01PM 40.6450 -94.0430 80° East 475 547 37,000  Level FlightAware
12:02PM 40.6630 -93.9070 80° East 473 544 37,000  Level FlightAware
12:02PM 40.6750 -93.8200 80° East 473 544 37,000  Level FlightAware
12:03PM 40.6930 -93.6830 80° East 474 545 37,000  Level FlightAware
12:04PM 40.7060 -93.5870 80° East 475 547 37,000  Level FlightAware
12:04PM 40.7190 -93.4860 80° East 477 549 37,000  Level FlightAware
12:05PM 40.7330 -93.3810 80° East 477 549 37,000  Level FlightAware
12:05PM 40.7440 -93.2940 80° East 475 547 37,000  Level FlightAware
12:06PM 40.7580 -93.1870 80° East 473 544 37,000  Level FlightAware
12:06PM 40.7690 -93.0960 81° East 472 543 37,000  Level FlightAware
12:07PM 40.7830 -92.9900 80° East 469 540 37,000  Level FlightAware
12:08PM 40.7960 -92.8900 80° East 465 535 37,000  Level FlightAware
12:08PM 40.8090 -92.7850 81° East 460 529 37,000  Level FlightAware
12:09PM 40.8190 -92.7000 81° East 458 527 37,000 -120 Level FlightAware
12:09PM 40.8320 -92.5980 80° East 458 527 36,900 -480 Descending FlightAware
12:10PM 40.8420 -92.5120 81° East 459 528 36,500 -900 Descending FlightAware
12:11PM 40.8550 -92.4110 80° East 461 531 35,900 -1,020 Descending FlightAware
12:11PM 40.8640 -92.3300 82° East 464 534 35,400 -1,020 Descending FlightAware
12:12PM 40.8790 -92.2060 81° East 467 537 34,700 -1,020 Descending FlightAware
12:12PM 40.8900 -92.1180 81° East 469 540 34,200 -1,020 Descending FlightAware
12:13PM 40.9020 -92.0150 81° East 470 541 33,600 -720 Descending FlightAware
12:14PM 40.9170 -91.8870 81° East 470 541 33,200 -1,020 Descending FlightAware
12:14PM 40.9310 -91.7630 81° East 464 534 32,100 -1,380 Descending FlightAware
12:15PM 40.9430 -91.6560 82° East 466 536 31,500 -960 Descending FlightAware
12:16PM 40.9550 -91.5530 81° East 470 541 30,900 -1,080 Descending FlightAware
12:16PM 40.9680 -91.4400 81° East 470 541 30,200 -1,080 Descending FlightAware
12:17PM 40.9790 -91.3400 82° East 466 536 29,600 -1,020 Descending FlightAware
12:17PM 40.9890 -91.2470 82° East 463 533 29,100 -540 Descending FlightAware
12:18PM 41.0020 -91.1310 82° East 463 533 29,000 -720 Descending FlightAware
12:19PM 41.0130 -91.0240 82° East 460 529 28,200 -1,560 Descending FlightAware
12:19PM 41.0230 -90.9370 81° East 448 516 27,200 -2,040 Descending FlightAware
12:20PM 41.0340 -90.8380 82° East 439 505 25,900 -1,980 Descending FlightAware
12:20PM 41.0440 -90.7440 82° East 430 495 24,800 -1,620 Descending FlightAware
12:21PM 41.0530 -90.6500 83° East 438 504 24,000 -720 Descending FlightAware
12:22PM 41.0620 -90.5680 82° East 441 507 24,000 -360 Level FlightAware
12:22PM 41.0720 -90.4690 82° East 437 503 23,600 -1,620 Descending FlightAware
12:23PM 41.0800 -90.3910 82° East 438 504 22,200 -2,520 Descending FlightAware
12:23PM 41.0910 -90.2860 82° East 426 490 20,800 -2,040 Descending FlightAware
12:24PM 41.1000 -90.1990 82° East 416 479 19,700 -1,860 Descending FlightAware
12:25PM 41.1090 -90.1040 83° East 402 463 18,600 -1,860 Descending FlightAware
12:25PM 41.1170 -90.0300 82° East 401 461 17,600 -1,440 Descending FlightAware
12:26PM 41.1250 -89.9480 83° East 382 440 17,000 -840 Descending FlightAware
12:26PM 41.1330 -89.8650 83° East 358 412 16,600 -720 Descending FlightAware
12:27PM 41.1400 -89.7900 83° East 335 386 16,200 -600 Descending FlightAware
12:27PM 41.1470 -89.7170 83° East 328 377 15,900 -660 Descending FlightAware
12:28PM 41.1540 -89.6480 82° East 369 425 15,500 -1,800 Descending FlightAware
12:29PM 41.1620 -89.5610 83° East 384 442 13,800 -2,220 Descending FlightAware
12:29PM 41.1680 -89.4790 84° East 376 433 12,800 -1,800 Descending FlightAware
12:30PM 41.1730 -89.4040 85° East 371 427 11,800 -1,800 Descending FlightAware
12:30PM 41.1780 -89.3220 85° East 361 415 10,800 -1,440 Descending FlightAware
12:31PM 41.1830 -89.2450 85° East 343 395 10,100 -900 Descending FlightAware
12:31PM 41.1850 -89.2070 86° East 345 397 10,000 -300 Descending FlightAware
12:32PM 41.1910 -89.1630 80° East 347 399 9,900 -180 Descending FlightAware
12:32PM 41.2030 -89.1140 72° East 346 398 9,900 120 Level FlightAware
12:32PM 41.2120 -89.0720 74° East 343 395 10,000 120 Climbing FlightAware
12:33PM 41.2200 -89.0410 71° East 343 395 10,000 -180 Level FlightAware
12:33PM 41.2310 -88.9930 73° East 343 395 9,900  Descending FlightAware
12:33PM 41.2390 -88.9590 73° East 345 397 10,000  Climbing FlightAware
12:34PM 41.2470 -88.9280 71° East 346 398 9,900  Descending FlightAware
12:34PM 41.2580 -88.8780 74° East 327 376 10,000 120 Climbing FlightAware
12:34PM 41.2670 -88.8440 71° East 322 371 10,000 -180 Level FlightAware
12:35PM 41.2720 -88.8130 78° East 321 369 9,900 -180 Descending FlightAware
12:35PM 41.2740 -88.7770 86° East 316 364 9,900 -720 Level FlightAware
12:35PM 41.2760 -88.7330 87° East 313 360 9,400 -1,500 Descending FlightAware
12:36PM 41.2790 -88.7080 81° East 315 362 9,000 -1,800 Descending FlightAware
12:36PM 41.2850 -88.6940 60° Northeast 314 361 8,800 -1,500 Descending FlightAware
12:36PM 41.2920 -88.6820 52° Northeast 310 357 8,600 -1,320 Descending FlightAware
12:36PM 41.3130 -88.6540 45° Northeast 302 348 8,200 -1,320 Descending FlightAware
12:36PM 41.3320 -88.6260 48° Northeast 300 345 7,700 -1,440 Descending FlightAware
12:37PM 41.3510 -88.6000 46° Northeast 300 345 7,200 -1,500 Descending FlightAware
12:37PM 41.3700 -88.5710 49° Northeast 297 342 6,700 -1,500 Descending FlightAware
12:38PM 41.3930 -88.5390 46° Northeast 297 342 6,100 -1,200 Descending FlightAware
12:38PM 41.4110 -88.5130 47° Northeast 299 344 5,900 -480 Descending FlightAware
12:38PM 41.4290 -88.4800 54° Northeast 299 344 5,800 -840 Descending FlightAware
12:39PM 41.4400 -88.4460 67° East 297 342 5,300 -1,500 Descending FlightAware
12:39PM 41.4500 -88.4130 68° East 297 342 4,800 -1,680 Descending FlightAware
12:39PM 41.4610 -88.3790 67° East 297 342 4,200 -1,260 Descending FlightAware
12:40PM 41.4740 -88.3380 67° East 302 348 3,900 -480 Descending FlightAware
12:40PM 41.4840 -88.3060 67° East 303 349 3,900  Level FlightAware
12:40PM 41.4960 -88.2660 68° East 301 346 3,900 120 Level FlightAware
12:41PM 41.5080 -88.2280 67° East 300 345 4,000 120 Climbing FlightAware
12:41PM 41.5170 -88.2010 66° East 300 345 4,000  Level FlightAware
12:41PM 41.5290 -88.1620 68° East 299 344 4,000 -180 Level FlightAware
12:42PM 41.5420 -88.1210 67° East 301 346 3,900  Descending FlightAware
12:42PM 41.5520 -88.0880 68° East 301 346 4,000  Climbing FlightAware
12:42PM 41.5630 -88.0530 67° East 300 345 3,900 -180 Descending FlightAware
12:43PM 41.5790 -88.0150 61° Northeast 293 337 3,900 120 Level FlightAware
12:43PM 41.5950 -87.9930 46° Northeast 260 299 4,000  Climbing FlightAware
12:43PM 41.6110 -87.9720 44° Northeast 256 295 3,900  Descending FlightAware
12:44PM 41.6300 -87.9470 45° Northeast 255 293 4,000  Climbing FlightAware
12:44PM 41.6480 -87.9250 42° Northeast 256 295 3,900 -600 Descending FlightAware
12:45PM 41.6660 -87.9020 44° Northeast 257 296 3,600 -1,140 Descending FlightAware
12:45PM 41.6860 -87.8770 43° Northeast 253 291 3,100 -1,440 Descending FlightAware
12:45PM 41.7030 -87.8550 44° Northeast 247 284 2,600 -1,380 Descending FlightAware
12:46PM 41.7200 -87.8350 41° Northeast 227 261 2,200 -1,140 Descending FlightAware
12:46PM 41.7360 -87.8140 44° Northeast 198 228 1,800 -1,080 Descending FlightAware
12:46PM 41.7460 -87.8010 44° Northeast 169 194 1,500 -1,020 Descending FlightAware
12:47PM 41.7560 -87.7890 42° Northeast 154 177 1,200 -480 Descending FlightAware
12:47PM 41.7760 -87.7630 44° Northeast 142 163 1,000 -300 Descending FlightAware